Year,Month,Day,Hour,Minute,Value (Times are PST for temperature in C)
2013,04,17,13,54,9.80
2013,04,17,13,55,9.80
2013,04,17,13,56,9.70
2013,04,17,13,57,9.70
2013,04,17,13,58,9.70
2013,04,17,13,59,9.80
2013,04,17,14,00,9.80
2013,04,17,14,01,9.90
2013,04,17,14,02,9.80
2013,04,17,14,03,9.80
2013,04,17,14,04,9.80
2013,04,17,14,05,9.80
2013,04,17,14,06,9.80
2013,04,17,14,07,9.80
2013,04,17,14,08,9.70
2013,04,17,14,09,9.60
2013,04,17,14,10,9.60
2013,04,17,14,11,9.60
2013,04,17,14,12,9.60
2013,04,17,14,13,9.70
2013,04,17,14,14,9.70
2013,04,17,14,15,9.70
2013,04,17,14,16,9.70
2013,04,17,14,17,9.70
2013,04,17,14,18,9.70
2013,04,17,14,19,9.70
2013,04,17,14,20,9.60
2013,04,17,14,21,9.60
2013,04,17,14,22,9.60
2013,04,17,14,23,9.60
2013,04,17,14,24,9.60
2013,04,17,14,25,9.60
2013,04,17,14,26,9.70
2013,04,17,14,27,9.70
2013,04,17,14,28,9.70
2013,04,17,14,29,9.70
2013,04,17,14,30,9.80
2013,04,17,14,31,9.80
2013,04,17,14,32,9.70
2013,04,17,14,33,9.70
2013,04,17,14,34,9.70
2013,04,17,14,35,9.70
2013,04,17,14,36,9.70
2013,04,17,14,37,9.70
2013,04,17,14,38,9.70
2013,04,17,14,39,9.70
2013,04,17,14,40,9.70
2013,04,17,14,41,9.70
2013,04,17,14,42,9.70
2013,04,17,14,43,9.80
2013,04,17,14,44,9.80
2013,04,17,14,45,9.80
2013,04,17,14,46,9.70
2013,04,17,14,47,9.70
2013,04,17,14,48,9.70
2013,04,17,14,49,9.70
2013,04,17,14,50,9.70
2013,04,17,14,51,9.70
2013,04,17,14,52,9.80
2013,04,17,14,53,9.80
2013,04,17,14,54,9.80
2013,04,17,14,55,9.90
2013,04,17,14,56,9.90
2013,04,17,14,57,9.90
2013,04,17,14,58,9.90
2013,04,17,14,59,9.90
2013,04,17,15,00,9.90
2013,04,17,15,01,9.90
2013,04,17,15,02,9.80
2013,04,17,15,03,9.80
2013,04,17,15,04,9.80
2013,04,17,15,05,9.80
2013,04,17,15,06,9.70
2013,04,17,15,07,9.70
2013,04,17,15,08,9.70
2013,04,17,15,09,9.70
2013,04,17,15,10,9.70
2013,04,17,15,11,9.60
2013,04,17,15,12,9.70
2013,04,17,15,13,9.60
2013,04,17,15,14,9.60
2013,04,17,15,15,9.60
2013,04,17,15,16,9.60
2013,04,17,15,17,9.60
2013,04,17,15,18,9.60
2013,04,17,15,19,9.60
2013,04,17,15,20,9.60
2013,04,17,15,21,9.60
2013,04,17,15,22,9.60
2013,04,17,15,23,9.60
2013,04,17,15,24,9.60
2013,04,17,15,25,9.70
2013,04,17,15,26,9.70
2013,04,17,15,27,9.70
2013,04,17,15,28,9.70
2013,04,17,15,29,9.70
2013,04,17,15,30,9.70
2013,04,17,15,31,9.70
2013,04,17,15,32,9.70
2013,04,17,15,33,9.70
2013,04,17,15,34,9.70
2013,04,17,15,35,9.70
2013,04,17,15,36,9.70
2013,04,17,15,37,9.70
2013,04,17,15,38,9.80
2013,04,17,15,39,9.80
2013,04,17,15,40,9.90
2013,04,17,15,41,9.90
2013,04,17,15,42,9.90
2013,04,17,15,43,9.90
2013,04,17,15,44,10.00
2013,04,17,15,45,10.10
2013,04,17,15,46,10.10
2013,04,17,15,47,10.20
2013,04,17,15,48,10.20
2013,04,17,15,49,10.20
2013,04,17,15,50,10.30
2013,04,17,15,51,10.40
2013,04,17,15,52,10.40
2013,04,17,15,53,10.40
2013,04,17,15,54,10.40
2013,04,17,15,55,10.30
2013,04,17,15,56,10.40
2013,04,17,15,57,10.40
2013,04,17,15,58,10.40
2013,04,17,15,59,10.40
2013,04,17,16,00,10.40
2013,04,17,16,01,10.40
2013,04,17,16,02,10.40
2013,04,17,16,03,10.40
2013,04,17,16,04,10.40
2013,04,17,16,05,10.40
2013,04,17,16,06,10.40
2013,04,17,16,07,10.40
2013,04,17,16,08,10.40
2013,04,17,16,09,10.40
2013,04,17,16,10,10.40
2013,04,17,16,11,10.50
2013,04,17,16,12,10.60
2013,04,17,16,13,10.60
2013,04,17,16,14,10.60
2013,04,17,16,15,10.60
2013,04,17,16,16,10.70
2013,04,17,16,17,10.70
2013,04,17,16,18,10.80
2013,04,17,16,19,10.80
2013,04,17,16,20,10.80
2013,04,17,16,21,10.80
2013,04,17,16,22,10.80
2013,04,17,16,23,10.80
2013,04,17,16,24,10.80
2013,04,17,16,25,10.90
2013,04,17,16,26,10.90
2013,04,17,16,27,10.90
2013,04,17,16,28,10.90
2013,04,17,16,29,10.90
2013,04,17,16,30,10.90
2013,04,17,16,31,11.00
2013,04,17,16,32,11.00
2013,04,17,16,33,10.90
2013,04,17,16,34,10.90
2013,04,17,16,35,10.90
2013,04,17,16,36,10.90
2013,04,17,16,37,10.90
2013,04,17,16,38,10.90
2013,04,17,16,39,10.90
2013,04,17,16,40,10.80
2013,04,17,16,41,10.80
2013,04,17,16,42,10.80
2013,04,17,16,43,10.80
2013,04,17,16,44,10.70
2013,04,17,16,45,10.70
2013,04,17,16,46,10.80
2013,04,17,16,47,10.80
2013,04,17,16,48,10.80
2013,04,17,16,49,10.80
2013,04,17,16,50,10.80
2013,04,17,16,51,10.90
2013,04,17,16,52,10.90
2013,04,17,16,53,10.90
2013,04,17,16,54,10.90
2013,04,17,16,55,10.90
2013,04,17,16,56,10.90
2013,04,17,16,57,10.90
2013,04,17,16,58,10.90
2013,04,17,16,59,10.90
2013,04,17,17,00,11.00
2013,04,17,17,01,11.10
2013,04,17,17,02,11.10
2013,04,17,17,03,11.10
2013,04,17,17,04,11.20
2013,04,17,17,05,11.20
2013,04,17,17,06,11.20
2013,04,17,17,07,11.30
2013,04,17,17,08,11.30
2013,04,17,17,09,11.40
2013,04,17,17,10,11.40
2013,04,17,17,11,11.40
2013,04,17,17,12,11.40
2013,04,17,17,13,11.40
2013,04,17,17,14,11.40
2013,04,17,17,15,11.40
2013,04,17,17,16,11.40
2013,04,17,17,17,11.40
2013,04,17,17,18,11.50
2013,04,17,17,19,11.60
2013,04,17,17,20,11.50
2013,04,17,17,21,11.40
2013,04,17,17,22,11.40
2013,04,17,17,23,11.40
2013,04,17,17,24,11.40
2013,04,17,17,25,11.40
2013,04,17,17,26,11.40
2013,04,17,17,27,11.30
2013,04,17,17,28,11.30
2013,04,17,17,29,11.20
2013,04,17,17,30,11.20
2013,04,17,17,31,11.20
2013,04,17,17,32,11.10
2013,04,17,17,33,11.10
2013,04,17,17,34,11.10
2013,04,17,17,35,11.10
2013,04,17,17,36,11.10
2013,04,17,17,37,10.90
2013,04,17,17,38,10.90
2013,04,17,17,39,10.90
2013,04,17,17,40,10.90
2013,04,17,17,41,10.90
2013,04,17,17,42,10.80
2013,04,17,17,43,10.80
2013,04,17,17,44,10.80
2013,04,17,17,45,10.70
2013,04,17,17,46,10.70
2013,04,17,17,47,10.70
2013,04,17,17,48,10.60
2013,04,17,17,49,10.60
2013,04,17,17,50,10.60
2013,04,17,17,51,10.60
2013,04,17,17,52,10.60
2013,04,17,17,53,10.60
2013,04,17,17,54,10.60
2013,04,17,17,55,10.60
2013,04,17,17,56,10.60
2013,04,17,17,57,10.60
2013,04,17,17,58,10.60
2013,04,17,17,59,10.60
2013,04,17,18,00,10.60
2013,04,17,18,01,10.60
2013,04,17,18,02,10.60
2013,04,17,18,03,10.50
2013,04,17,18,04,10.40
2013,04,17,18,05,10.40
2013,04,17,18,06,10.40
2013,04,17,18,07,10.30
2013,04,17,18,08,10.30
2013,04,17,18,09,10.30
2013,04,17,18,10,10.20
2013,04,17,18,11,10.10
2013,04,17,18,12,10.10
2013,04,17,18,13,10.10
2013,04,17,18,14,10.10
2013,04,17,18,15,10.00
2013,04,17,18,16,9.90
2013,04,17,18,17,9.90
2013,04,17,18,18,9.80
2013,04,17,18,19,9.80
2013,04,17,18,20,9.80
2013,04,17,18,21,9.70
2013,04,17,18,22,9.70
2013,04,17,18,23,9.70
2013,04,17,18,24,9.70
2013,04,17,18,25,9.60
2013,04,17,18,26,9.60
2013,04,17,18,27,9.50
2013,04,17,18,28,9.50
2013,04,17,18,29,9.40
2013,04,17,18,30,9.40
2013,04,17,18,31,9.30
2013,04,17,18,32,9.30
2013,04,17,18,33,9.30
2013,04,17,18,34,9.20
2013,04,17,18,35,9.20
2013,04,17,18,36,9.20
2013,04,17,18,37,9.20
2013,04,17,18,38,9.20
2013,04,17,18,39,9.20
2013,04,17,18,40,9.20
2013,04,17,18,41,9.20
2013,04,17,18,42,9.20
2013,04,17,18,43,9.20
2013,04,17,18,44,9.20
2013,04,17,18,45,9.20
2013,04,17,18,46,9.10
2013,04,17,18,47,9.10
2013,04,17,18,48,9.10
2013,04,17,18,49,9.10
2013,04,17,18,50,9.10
2013,04,17,18,51,9.10
2013,04,17,18,52,9.10
2013,04,17,18,53,9.00
2013,04,17,18,54,9.00
2013,04,17,18,55,9.00
2013,04,17,18,56,9.00
2013,04,17,18,57,8.90
2013,04,17,18,58,8.90
2013,04,17,18,59,8.90
2013,04,17,19,00,8.90
2013,04,17,19,01,8.80
2013,04,17,19,02,8.80
2013,04,17,19,03,8.80
2013,04,17,19,04,8.80
2013,04,17,19,05,8.70
2013,04,17,19,06,8.70
2013,04,17,19,07,8.70
2013,04,17,19,08,8.70
2013,04,17,19,09,8.70
2013,04,17,19,10,8.70
2013,04,17,19,11,8.70
2013,04,17,19,12,8.70
2013,04,17,19,13,8.60
2013,04,17,19,14,8.60
2013,04,17,19,15,8.60
2013,04,17,19,16,8.60
2013,04,17,19,17,8.50
2013,04,17,19,18,8.50
2013,04,17,19,19,8.50
2013,04,17,19,20,8.40
2013,04,17,19,21,8.40
2013,04,17,19,22,8.40
2013,04,17,19,23,8.40
2013,04,17,19,24,8.40
2013,04,17,19,25,8.30
2013,04,17,19,26,8.30
2013,04,17,19,27,8.30
2013,04,17,19,28,8.30
2013,04,17,19,29,8.30
2013,04,17,19,30,8.30
2013,04,17,19,31,8.30
2013,04,17,19,32,8.30
2013,04,17,19,33,8.30
2013,04,17,19,34,8.30
2013,04,17,19,35,8.30
2013,04,17,19,36,8.20
2013,04,17,19,37,8.20
2013,04,17,19,38,8.20
2013,04,17,19,39,8.20
2013,04,17,19,40,8.20
2013,04,17,19,41,8.20
2013,04,17,19,42,8.20
2013,04,17,19,43,8.20
2013,04,17,19,44,8.20
2013,04,17,19,45,8.20
2013,04,17,19,46,8.20
2013,04,17,19,47,8.10
2013,04,17,19,48,8.10
2013,04,17,19,49,8.10
2013,04,17,19,50,8.00
2013,04,17,19,51,8.00
2013,04,17,19,52,8.00
2013,04,17,19,53,8.00
2013,04,17,19,54,7.90
2013,04,17,19,55,7.90
2013,04,17,19,56,7.90
2013,04,17,19,57,7.80
2013,04,17,19,58,7.80
2013,04,17,19,59,7.80
2013,04,17,20,00,7.80
2013,04,17,20,01,7.80
2013,04,17,20,02,7.80
2013,04,17,20,03,7.70
2013,04,17,20,04,7.70
2013,04,17,20,05,7.70
2013,04,17,20,06,7.70
2013,04,17,20,07,7.70
2013,04,17,20,08,7.70
2013,04,17,20,09,7.70
2013,04,17,20,10,7.70
2013,04,17,20,11,7.70
2013,04,17,20,12,7.70
2013,04,17,20,13,7.70
2013,04,17,20,14,7.70
2013,04,17,20,15,7.70
2013,04,17,20,16,7.70
2013,04,17,20,17,7.70
2013,04,17,20,18,7.70
2013,04,17,20,19,7.70
2013,04,17,20,20,7.70
2013,04,17,20,21,7.70
2013,04,17,20,22,7.60
2013,04,17,20,23,7.60
2013,04,17,20,24,7.60
2013,04,17,20,25,7.60
2013,04,17,20,26,7.60
2013,04,17,20,27,7.50
2013,04,17,20,28,7.50
2013,04,17,20,29,7.50
2013,04,17,20,30,7.50
2013,04,17,20,31,7.40
2013,04,17,20,32,7.40
2013,04,17,20,33,7.40
2013,04,17,20,34,7.40
2013,04,17,20,35,7.30
2013,04,17,20,36,7.30
2013,04,17,20,37,7.30
2013,04,17,20,38,7.30
2013,04,17,20,39,7.30
2013,04,17,20,40,7.30
2013,04,17,20,41,7.20
2013,04,17,20,42,7.20
2013,04,17,20,43,7.20
2013,04,17,20,44,7.10
2013,04,17,20,45,7.10
2013,04,17,20,46,7.10
2013,04,17,20,47,7.10
2013,04,17,20,48,7.00
2013,04,17,20,49,7.00
2013,04,17,20,50,7.00
2013,04,17,20,51,7.00
2013,04,17,20,52,7.00
2013,04,17,20,53,7.00
2013,04,17,20,54,7.00
2013,04,17,20,55,6.90
2013,04,17,20,56,6.90
2013,04,17,20,57,6.90
2013,04,17,20,58,6.90
2013,04,17,20,59,6.90
2013,04,17,21,00,6.90
2013,04,17,21,01,6.90
2013,04,17,21,02,6.90
2013,04,17,21,03,6.90
2013,04,17,21,04,6.90
2013,04,17,21,05,6.90
2013,04,17,21,06,6.90
2013,04,17,21,07,6.90
2013,04,17,21,08,6.90
2013,04,17,21,09,6.90
2013,04,17,21,10,6.90
2013,04,17,21,11,6.80
2013,04,17,21,12,6.80
2013,04,17,21,13,6.80
2013,04,17,21,14,6.80
2013,04,17,21,15,6.80
2013,04,17,21,16,6.80
2013,04,17,21,17,6.80
2013,04,17,21,18,6.80
2013,04,17,21,19,6.80
2013,04,17,21,20,6.80
2013,04,17,21,21,6.80
2013,04,17,21,22,6.80
2013,04,17,21,23,6.80
2013,04,17,21,24,6.80
2013,04,17,21,25,6.70
2013,04,17,21,26,6.70
2013,04,17,21,27,6.70
2013,04,17,21,28,6.70
2013,04,17,21,29,6.70
2013,04,17,21,30,6.70
2013,04,17,21,31,6.70
2013,04,17,21,32,6.70
2013,04,17,21,33,6.70
2013,04,17,21,34,6.70
2013,04,17,21,35,6.70
2013,04,17,21,36,6.70
2013,04,17,21,37,6.70
2013,04,17,21,38,6.70
2013,04,17,21,39,6.70
2013,04,17,21,40,6.70
2013,04,17,21,41,6.70
2013,04,17,21,42,6.70
2013,04,17,21,43,6.70
2013,04,17,21,44,6.70
2013,04,17,21,45,6.60
2013,04,17,21,46,6.60
2013,04,17,21,47,6.60
2013,04,17,21,48,6.60
2013,04,17,21,49,6.60
2013,04,17,21,50,6.60
2013,04,17,21,51,6.60
2013,04,17,21,52,6.60
2013,04,17,21,53,6.60
2013,04,17,21,54,6.60
2013,04,17,21,55,6.60
2013,04,17,21,56,6.60
2013,04,17,21,57,6.60
2013,04,17,21,58,6.60
2013,04,17,21,59,6.60
2013,04,17,22,00,6.60
2013,04,17,22,01,6.60
2013,04,17,22,02,6.60
2013,04,17,22,03,6.60
2013,04,17,22,04,6.60
2013,04,17,22,05,6.60
2013,04,17,22,06,6.60
2013,04,17,22,07,6.60
2013,04,17,22,08,6.60
2013,04,17,22,09,6.60
2013,04,17,22,10,6.60
2013,04,17,22,11,6.60
2013,04,17,22,12,6.60
2013,04,17,22,13,6.60
2013,04,17,22,14,6.60
2013,04,17,22,15,6.60
2013,04,17,22,16,6.60
2013,04,17,22,17,6.60
2013,04,17,22,18,6.60
2013,04,17,22,19,6.60
2013,04,17,22,20,6.60
2013,04,17,22,21,6.60
2013,04,17,22,22,6.60
2013,04,17,22,23,6.60
2013,04,17,22,24,6.60
2013,04,17,22,25,6.60
2013,04,17,22,26,6.60
2013,04,17,22,27,6.60
2013,04,17,22,28,6.60
2013,04,17,22,29,6.50
2013,04,17,22,30,6.40
2013,04,17,22,31,6.40
2013,04,17,22,32,6.40
2013,04,17,22,33,6.40
2013,04,17,22,34,6.40
2013,04,17,22,35,6.40
2013,04,17,22,36,6.40
2013,04,17,22,37,6.40
2013,04,17,22,38,6.40
2013,04,17,22,39,6.40
2013,04,17,22,40,6.40
2013,04,17,22,41,6.40
2013,04,17,22,42,6.40
2013,04,17,22,43,6.30
2013,04,17,22,44,6.30
2013,04,17,22,45,6.30
2013,04,17,22,46,6.30
2013,04,17,22,47,6.30
2013,04,17,22,48,6.30
2013,04,17,22,49,6.30
2013,04,17,22,50,6.30
2013,04,17,22,51,6.30
2013,04,17,22,52,6.30
2013,04,17,22,53,6.20
2013,04,17,22,54,6.20
2013,04,17,22,55,6.20
2013,04,17,22,56,6.20
2013,04,17,22,57,6.20
2013,04,17,22,58,6.20
2013,04,17,22,59,6.20
2013,04,17,23,00,6.20
2013,04,17,23,01,6.20
2013,04,17,23,02,6.20
2013,04,17,23,03,6.20
2013,04,17,23,04,6.20
2013,04,17,23,05,6.20
2013,04,17,23,06,6.20
2013,04,17,23,07,6.20
2013,04,17,23,08,6.20
2013,04,17,23,09,6.20
2013,04,17,23,10,6.20
2013,04,17,23,11,6.20
2013,04,17,23,12,6.20
2013,04,17,23,13,6.20
2013,04,17,23,14,6.20
2013,04,17,23,15,6.20
2013,04,17,23,16,6.20
2013,04,17,23,17,6.20
2013,04,17,23,18,6.20
2013,04,17,23,19,6.20
2013,04,17,23,20,6.20
2013,04,17,23,21,6.20
2013,04,17,23,22,6.20
2013,04,17,23,23,6.20
2013,04,17,23,24,6.10
2013,04,17,23,25,6.10
2013,04,17,23,26,6.10
2013,04,17,23,27,6.10
2013,04,17,23,28,6.10
2013,04,17,23,29,6.10
2013,04,17,23,30,6.10
2013,04,17,23,31,6.10
2013,04,17,23,32,6.10
2013,04,17,23,33,6.10
2013,04,17,23,34,6.10
2013,04,17,23,35,6.10
2013,04,17,23,36,6.10
2013,04,17,23,37,6.10
2013,04,17,23,38,6.10
2013,04,17,23,39,6.10
2013,04,17,23,40,6.10
2013,04,17,23,41,6.10
2013,04,17,23,42,6.10
2013,04,17,23,43,6.10
2013,04,17,23,44,6.10
2013,04,17,23,45,6.10
2013,04,17,23,46,6.10
2013,04,17,23,47,6.10
2013,04,17,23,48,6.10
2013,04,17,23,49,6.10
2013,04,17,23,50,6.10
2013,04,17,23,51,6.10
2013,04,17,23,52,6.10
2013,04,17,23,53,6.10
2013,04,17,23,54,6.10
2013,04,17,23,55,6.10
2013,04,17,23,56,6.10
2013,04,17,23,57,6.10
2013,04,17,23,58,6.10
2013,04,17,23,59,6.10
